EDT,Max TemperatureF,Mean TemperatureF,Min TemperatureF,Max Dew PointF,MeanDew PointF,Min DewpointF,Max Humidity, Mean Humidity, Min Humidity, Max Sea Level PressureIn, Mean Sea Level PressureIn, Min Sea Level PressureIn, Max VisibilityMiles, Mean VisibilityMiles, Min VisibilityMiles, Max Wind SpeedMPH, Mean Wind SpeedMPH, Max Gust SpeedMPH,PrecipitationIn, CloudCover, Events, WindDirDegrees
2012-3-1,42,37,31,41,34,21,100,78,56,29.94,29.69,29.53,10,8,1,26,11,37,0.22,8,Rain-Thunderstorm,258
2012-3-2,48,39,29,42,34,28,100,79,58,29.95,29.71,29.45,10,9,4,24,11,38,0.24,5,Rain-Thunderstorm,130
2012-3-3,51,40,29,44,27,14,93,69,44,29.74,29.57,29.41,10,9,2,30,18,39,T,6,Snow,240
2012-3-4,32,28,24,25,20,15,92,80,68,29.84,29.69,29.62,10,6,0,22,13,31,T,7,Fog-Snow,272
2012-3-5,31,23,15,16,12,8,84,64,43,30.45,30.12,29.80,10,10,10,21,8,29,0.00,4,,290
2012-3-6,43,30,16,19,15,9,92,59,25,30.59,30.47,30.37,10,10,10,14,6,21,0.00,4,,165
2012-3-7,63,49,34,29,24,18,52,39,26,30.40,30.30,30.17,10,10,10,25,10,33,0.00,0,,202
2012-3-8,57,46,34,50,41,31,96,67,38,30.16,29.98,29.83,10,7,2,25,16,40,0.93,7,Rain,246
2012-3-9,35,29,22,30,24,13,89,74,58,30.39,30.17,30.03,10,6,0,26,14,36,0.02,6,Fog-Snow,282
2012-3-10,38,28,18,14,11,7,67,51,35,30.57,30.48,30.41,10,10,10,18,7,25,0.00,1,,268
2012-3-11,62,46,30,24,19,13,49,36,22,30.44,30.37,30.29,10,10,10,17,7,23,0.00,0,,223
2012-3-12,64,50,36,53,38,24,100,63,26,30.30,30.17,30.02,10,8,2,17,6,25,0.27,5,Rain,177
2012-3-13,66,58,49,54,49,39,93,68,43,30.07,30.00,29.97,10,10,6,24,14,31,0.03,5,,243
2012-3-14,69,54,38,39,33,24,67,46,25,30.21,30.15,30.07,10,10,10,17,6,24,0.00,0,,248
2012-3-15,69,58,46,47,43,38,71,54,37,30.19,30.14,30.09,10,10,10,14,6,,0.00,0,,217
2012-3-16,68,61,53,55,52,48,100,78,55,30.20,30.12,30.04,10,9,2,17,8,25,0.21,5,Rain,265
2012-3-17,75,59,43,53,47,37,100,63,25,30.29,30.23,30.18,10,5,0,10,5,15,0.00,0,Fog,114
2012-3-18,72,63,53,54,51,46,86,70,53,30.24,30.18,30.12,10,10,8,14,7,20,0.00,6,,171
2012-3-19,66,60,53,57,54,52,100,84,67,30.19,30.16,30.10,10,8,2,8,3,10,0.11,7,Rain,170
2012-3-20,73,62,50,56,53,48,100,75,49,30.26,30.21,30.17,10,4,0,10,6,14,0.01,4,Fog,103
2012-3-21,71,61,51,55,53,50,100,77,53,30.30,30.27,30.21,10,7,0,15,8,24,0.00,2,Fog,112
2012-3-22,78,64,50,56,50,43,100,66,31,30.25,30.18,30.09,10,7,0,9,4,12,0.00,1,Fog,99
2012-3-23,78,64,50,56,48,42,89,59,29,30.11,30.03,29.92,10,10,9,14,7,20,0.00,1,,106
2012-3-24,65,60,55,57,54,47,100,78,56,29.94,29.89,29.86,10,6,1,14,8,20,0.89,8,Rain,121
2012-3-25,59,53,46,52,47,45,100,88,75,29.91,29.85,29.81,10,6,0,13,5,20,0.01,7,Fog,6
2012-3-26,47,37,26,43,21,4,86,57,27,30.30,30.09,29.91,10,10,10,25,12,33,0.00,2,,332
2012-3-27,50,35,19,14,10,5,73,46,18,30.36,30.27,30.06,10,10,10,12,4,15,0.00,0,,295
2012-3-28,74,58,42,48,34,13,66,46,25,30.02,29.77,29.61,10,9,2,37,16,45,0.18,5,Rain-Thunderstorm,253
2012-3-29,45,39,32,37,29,24,76,67,57,30.09,29.97,29.79,10,10,10,21,11,28,0.00,7,,318
2012-3-30,59,42,25,42,30,21,92,63,33,30.09,29.94,29.72,10,10,7,15,7,20,0.05,4,Rain-Thunderstorm,106
2012-3-31,46,43,39,45,40,34,100,87,73,29.91,29.79,29.69,10,7,1,13,5,17,0.07,8,Rain,335